NWS Melbourne » East Central Florida Hourly Weather Roundup

MIARWRMLB 000
TTAA00 KMLB 242211
HOURLY WEATHER ROUNDUP AROUND FLORIDA
NATIONAL WEATHER SERVICE OFFICE MELBOURNE FL
500 PM EST MON NOV 24 2014
  
CITY           SKY/WX    TMP DP  RH WIND       PRES   REMARKS
MELBOURNE      PTCLDY    85  71  63 S7        29.94S                  
FORT PIERCE    CLEAR     84  69  60 SW6       29.95R                  
ORLANDO INTL   MOCLDY    85  69  58 SW12      29.93S                  
DAYTONA BEACH  MOCLDY    84  69  60 S7        29.92R                  
VERO BEACH     CLEAR     83  69  62 SW7       29.96R                  
$$
...ELSEWHERE ACROSS CENTRAL FLORIDA...
  
CITY           SKY/WX    TMP DP  RH WIND       PRES   REMARKS
PATRICK AFB    CLEAR     77  74  90 S13       29.94R                  
JFK SPACE CTR  CLEAR     80  72  75 SE8       29.94R                  
CAPE CANAVERAL CLEAR     78  74  86 SE14      29.93S                  
TITUSVILLE     PTCLDY    82  72  69 S12       29.94R                  
ORLANDO EXEC   PTCLDY    85  68  56 SW10      29.93R                  
LEESBURG       PTCLDY    82  68  62 SW9       29.93R                  
SANFORD        PTCLDY    85  67  54 SW9       29.93R                  
WINTER HAVEN   PTCLDY    83  69  62 SW9       29.96R                  
KISSIMMEE      CLEAR     84  70  61 SW10      29.94R                  
OKEECHOBEE     PTCLDY   N/A N/A N/A S3        29.96S                  
TAMPA          PTCLDY    76  70  82 S12       29.95R                  
$$
...NORTHERN FLORIDA...
  
CITY           SKY/WX    TMP DP  RH WIND       PRES   REMARKS
DELAND         PTCLDY   N/A N/A N/A S8        29.93S                  
NEW SMYRNA BCH PTCLDY    84  72  65 SW8       29.93R                  
ORMOND BEACH   CLEAR     82  70  65 SW10      29.92R                  
ST AUGUSTINE   CLOUDY    81  72  74 S5        29.92R                  
OCALA          PTCLDY    82  64  54 SW15      29.92R                  
GAINESVILLE    MOCLDY    80  68  66 SW10      29.91R                  
JACKSONVILLE   MOCLDY    79  70  74 SW9       29.90R                  
TALLAHASSEE    CLOUDY    71  68  90 S5        29.87S                  
$$
...ALONG THE SOUTHEAST COAST TO THE KEYS...
  
CITY           SKY/WX    TMP DP  RH WIND       PRES   REMARKS
STUART         MOCLDY    84  68  58 S9        29.97R                  
WEST PALM BCH  MOCLDY    83  75  77 S9        29.96R                  
MIAMI          CLOUDY    83  75  77 S12G21    29.98R                  
KEY WEST       PTCLDY    81  76  84 SE7       29.96R                  
$$
...MARINE REPORTS...
  
STATION/POSITION TIME  TEMP    WIND        PRES    WAVE   SWELL
                       AIR SEA DIR/SP/G            HT/PER HT/PER/DIR
                 (UTC) (F)     (DEG/KT/KT) (MB)    (FT/S) (FT/S/D)
ST AUGUSTINE FP  2200   80     200/  4/  5 1013.4R
20NM E CAPE CANA 2200   78 78  160/ 14/ 16 1014.3S   6/ 9   5/ 80/ 9
120 E NEW SMYRNA 2200   79 78  180/ 12/ 14 1015.7R   7/10   7/120/10
TRIDENT PIER     2200   76 71  140/  8/ 11 1013.5S
SEBASTIAN INLET  2200   77     150/  9     1015.0S
4NM E PORT CANAV 2200      70                N/A     3/ 9
6NM NE FPR INLET 2200      77                N/A     4/10   2/ 70/11
SETTLEMENT PT GB 2200   80     180/ 11/ 13 1016.6R
$$
  
 


USA.gov is the U.S. government's official web portal to all federal, state and local government web resources and services.